Clinton, AR

10:54 PM CDT on August 24, 2016 (GMT -0500)
Clinton

Weather History for KCCA - January, 2013

Change the Weather History Date:

Tuesday, January 29, 2013

  Actual Average (KFLP) Record (KFLP)
Temperature  
Mean Temperature 61 °F -  
Max Temperature 69 °F 46 °F 75 °F (2002)
Min Temperature 53 °F 27 °F 6 °F (2014)
Degree Days  
Heating Degree Days 4    
Growing Degree Days 11 (Base 50)    
Moisture  
Dew Point 61 °F    
Average Humidity 91    
Maximum Humidity 100    
Minimum Humidity 78    
Precipitation  
Precipitation 1.21 in - - ()
Sea Level Pressure  
Sea Level Pressure 29.72 in    
Wind  
Wind Speed 7 mph (SSE)    
Max Wind Speed 24 mph    
Max Gust Speed 39 mph    
Visibility 7 miles    
Events Rain , Thunderstorm    
Averages and records for this station are not official NWS values.
T = Trace of Precipitation, MM = Missing Value Source: NWS Daily Summary

Daily Weather History Graph

Daily Weather History Graph

Search for Another Location

Airport or City:

Trip Planner

Search our weather history database for the weather conditions in past years. The results will help you decide how hot, cold, wet, or windy it might be!

Date:

Astronomy

Jan. 29, 2013 Rise Set
Actual Time 7:11 AM CST 5:34 PM CST
Civil Twilight 6:44 AM CST 6:01 PM CST
Nautical Twilight 6:14 AM CST 6:32 PM CST
Astronomical Twilight 5:44 AM CST 7:02 PM CST
Moon 8:23 PM CST (1/29) 8:15 AM CST (1/29)
Length of Visible Light 11h 16m
Length of Day
10h 23m
Waning Gibbous, 93% of the Moon is Illuminated
Jan 29
Waning Gibbous
Feb 3
Last Quarter
Feb 10
New
Feb 17
First Quarter
Feb 25
Full

Hourly Weather History & Observations

Time (CST) Temp. Dew Point Humidity Pressure Visibility Wind Dir Wind Speed Gust Speed Precip Events Conditions
12:15 AM 66.2 °F 62.6 °F 88% 29.95 in 10.0 mi SSE 6.9 mph - N/A   Overcast
12:35 AM 66.2 °F 62.6 °F 88% 29.94 in 10.0 mi SSE 8.1 mph - N/A   Overcast
12:55 AM 66.2 °F 62.6 °F 88% 29.94 in 10.0 mi South 8.1 mph - N/A   Overcast
1:15 AM 66.2 °F 62.6 °F 88% 29.93 in 10.0 mi SSE 5.8 mph - N/A   Overcast
1:35 AM 66.2 °F 62.6 °F 88% 29.93 in 10.0 mi SSE 6.9 mph - N/A   Overcast
1:55 AM 66.2 °F 62.6 °F 88% 29.92 in 10.0 mi SSE 8.1 mph - N/A   Overcast
2:15 AM 66.2 °F 62.6 °F 88% 29.92 in 10.0 mi SSE 6.9 mph - N/A   Overcast
2:35 AM 66.2 °F 62.6 °F 88% 29.92 in 10.0 mi SSE 6.9 mph - N/A   Overcast
2:55 AM 66.2 °F 62.6 °F 88% 29.92 in 10.0 mi SSE 5.8 mph - N/A   Overcast
3:15 AM 66.2 °F 60.8 °F 83% 29.92 in 10.0 mi Calm Calm - N/A   Overcast
3:35 AM 66.2 °F 62.6 °F 88% 29.91 in 10.0 mi Calm Calm - N/A   Overcast
3:55 AM 66.2 °F 62.6 °F 88% 29.90 in 10.0 mi Calm Calm - N/A   Overcast
4:15 AM 66.2 °F 62.6 °F 88% 29.89 in 10.0 mi SSE 6.9 mph - N/A   Overcast
4:35 AM 66.2 °F 62.6 °F 88% 29.89 in 10.0 mi South 4.6 mph - N/A   Overcast
4:55 AM 66.2 °F 60.8 °F 83% 29.88 in 10.0 mi SSE 9.2 mph - N/A   Overcast
5:15 AM 66.2 °F 60.8 °F 83% 29.87 in 10.0 mi SSE 10.4 mph - N/A   Overcast
5:35 AM 66.2 °F 60.8 °F 83% 29.87 in 10.0 mi SSE 8.1 mph - N/A   Overcast
5:55 AM 66.2 °F 60.8 °F 83% 29.87 in 10.0 mi SSE 9.2 mph 17.3 mph N/A   Overcast
6:15 AM 66.2 °F 60.8 °F 83% 29.87 in 10.0 mi SSE 8.1 mph 17.3 mph N/A   Overcast
6:35 AM 66.2 °F 60.8 °F 83% 29.86 in 10.0 mi SSE 10.4 mph 17.3 mph N/A   Overcast
6:55 AM 66.2 °F 60.8 °F 83% 29.86 in 10.0 mi South 10.4 mph 18.4 mph N/A   Overcast
7:15 AM 66.2 °F 60.8 °F 83% 29.86 in 10.0 mi South 9.2 mph 18.4 mph N/A   Overcast
7:35 AM 64.4 °F 60.8 °F 88% 29.85 in 10.0 mi SSE 6.9 mph - N/A   Overcast
7:55 AM 66.2 °F 60.8 °F 83% 29.85 in 10.0 mi SSE 8.1 mph 16.1 mph N/A   Overcast
8:15 AM 66.2 °F 60.8 °F 83% 29.83 in 10.0 mi SSE 6.9 mph 18.4 mph N/A   Overcast
8:35 AM 66.2 °F 60.8 °F 83% 29.83 in 10.0 mi SSE 9.2 mph - N/A   Overcast
8:55 AM 66.2 °F 62.6 °F 88% 29.82 in 10.0 mi SSE 6.9 mph - N/A   Overcast
9:15 AM 66.2 °F 62.6 °F 88% 29.82 in 10.0 mi South 11.5 mph - N/A   Overcast
9:35 AM 66.2 °F 62.6 °F 88% 29.81 in 7.0 mi SSE 8.1 mph 18.4 mph N/A   Overcast
9:55 AM 66.2 °F 62.6 °F 88% 29.80 in 9.0 mi South 10.4 mph 17.3 mph N/A   Overcast
10:15 AM 66.2 °F 62.6 °F 88% 29.79 in 10.0 mi South 6.9 mph - N/A   Overcast
10:35 AM 66.2 °F 62.6 °F 88% 29.78 in 10.0 mi South 10.4 mph 20.7 mph N/A   Overcast
10:55 AM 66.2 °F 62.6 °F 88% 29.77 in 10.0 mi South 12.7 mph 23.0 mph N/A   Overcast
11:15 AM 68.0 °F 62.6 °F 83% 29.76 in 10.0 mi South 11.5 mph 25.3 mph N/A   Overcast
11:35 AM 68.0 °F 62.6 °F 83% 29.74 in 5.0 mi South 10.4 mph 25.3 mph N/A   Haze
11:55 AM 69.8 °F 62.6 °F 78% 29.72 in 10.0 mi South 10.4 mph 23.0 mph N/A   Overcast
12:15 PM 66.2 °F 62.6 °F 88% 29.71 in 2.0 mi South 11.5 mph 28.8 mph N/A Rain Light Rain
12:35 PM 66.2 °F 62.6 °F 88% 29.70 in 2.0 mi South 11.5 mph - 0.01 in Rain Light Rain
12:55 PM 66.2 °F 64.4 °F 94% 29.67 in 1.8 mi SSE 10.4 mph 17.3 mph 0.01 in   Overcast
1:15 PM 66.2 °F 64.4 °F 94% 29.65 in 2.5 mi SSE 9.2 mph 18.4 mph N/A   Mostly Cloudy
1:35 PM 66.2 °F 62.6 °F 88% 29.65 in 1.5 mi SSE 9.2 mph - 0.01 in Rain Rain
1:55 PM 64.4 °F 64.4 °F 100% 29.63 in 1.8 mi SSE 6.9 mph - 0.03 in Rain Light Rain
2:15 PM 64.4 °F 64.4 °F 100% 29.62 in 1.0 mi SSE 9.2 mph - 0.01 in Rain Rain
2:35 PM 64.4 °F 64.4 °F 100% 29.61 in 2.5 mi SSE 10.4 mph - 0.02 in Rain Light Rain
2:55 PM 64.4 °F 64.4 °F 100% 29.60 in 5.0 mi SE 12.7 mph 19.6 mph 0.02 in   Overcast
3:15 PM 64.4 °F 62.6 °F 94% 29.59 in 3.0 mi SSE 10.4 mph 17.3 mph 0.01 in Thunderstorm Overcast
3:35 PM 64.4 °F 62.6 °F 94% 29.59 in 2.0 mi SSE 8.1 mph - 0.15 in Rain , Thunderstorm Heavy Thunderstorms and Rain
3:55 PM 64.4 °F 64.4 °F 100% 29.58 in 5.0 mi South 10.4 mph - 0.22 in Rain Light Rain
4:15 PM 64.4 °F 64.4 °F 100% 29.56 in 8.0 mi SSE 9.2 mph 16.1 mph N/A   Overcast
4:35 PM 64.4 °F 64.4 °F 100% 29.55 in 10.0 mi South 9.2 mph - N/A   Overcast
4:55 PM 66.2 °F 64.4 °F 94% 29.54 in 10.0 mi SSE 10.4 mph 18.4 mph N/A   Overcast
5:15 PM 66.2 °F 64.4 °F 94% 29.53 in 10.0 mi South 10.4 mph - N/A   Overcast
5:35 PM 66.2 °F 64.4 °F 94% 29.52 in 10.0 mi Calm Calm - N/A   Overcast
5:55 PM 66.2 °F 64.4 °F 94% 29.51 in 10.0 mi SSE 9.2 mph - N/A Thunderstorm Overcast
6:15 PM 66.2 °F 64.4 °F 94% 29.50 in 10.0 mi SSE 6.9 mph - N/A   Overcast
6:35 PM 66.2 °F 64.4 °F 94% 29.50 in 10.0 mi SSE 12.7 mph 18.4 mph 0.02 in   Overcast
6:55 PM 66.2 °F 64.4 °F 94% 29.49 in 7.0 mi SE 3.5 mph - 0.04 in Rain , Thunderstorm Heavy Rain
7:15 PM 64.4 °F 62.6 °F 94% 29.54 in 8.0 mi West 24.2 mph 39.1 mph 0.01 in Rain , Thunderstorm Light Rain
7:35 PM 55.4 °F 53.6 °F 94% 29.54 in 1.0 mi NW 6.9 mph 20.7 mph 0.55 in Thunderstorm Overcast
7:55 PM 55.4 °F 53.6 °F 94% 29.55 in 3.0 mi Calm Calm - 0.57 in Rain Light Rain
8:15 PM 55.4 °F 53.6 °F 94% 29.57 in 4.0 mi Calm Calm - 0.03 in Rain Light Rain
8:35 PM 55.4 °F 53.6 °F 94% 29.55 in 5.0 mi Calm Calm - 0.08 in Rain Light Rain
8:55 PM 55.4 °F 53.6 °F 94% 29.57 in 5.0 mi Calm Calm - 0.09 in Rain Light Rain
9:15 PM 55.4 °F 53.6 °F 94% 29.58 in 3.0 mi Calm Calm - 0.03 in Rain Rain
9:35 PM 53.6 °F 53.6 °F 100% 29.56 in 3.0 mi Calm Calm - 0.08 in Rain Rain
9:55 PM 53.6 °F 53.6 °F 100% 29.55 in 5.0 mi Calm Calm - 0.11 in   Mostly Cloudy
10:15 PM 53.6 °F 53.6 °F 100% 29.55 in 4.0 mi Calm Calm - 0.02 in Rain Light Rain
10:35 PM 53.6 °F 53.6 °F 100% 29.56 in 4.0 mi Calm Calm - 0.05 in Rain Light Rain
10:55 PM 53.6 °F 53.6 °F 100% 29.57 in 4.0 mi Calm Calm - 0.08 in Rain Light Rain
11:15 PM 53.6 °F 53.6 °F 100% 29.59 in 4.0 mi WSW 3.5 mph - 0.04 in Rain Rain